User: anonymous   Login
Location: Unspecified
(0.0000°N, 0.0000°E)
Time: 23:17:41
(UTC+00:00)
Language:

Sedsat-1 - Orbit

View from above orbital plane
View from above orbital plane
View from above satellite
View from above satellite

Ground track
Ground track

The orbit data is extracted from the following two-line orbital elements,

1 25509U 98061B   18050.55135992 +.00000131 +00000-0 +14945-4 0  9990
2 25509 031.4323 102.1749 0346713 014.0570 346.9429 14.30322717009583
Epoch (UTC): 19 February 2018 13:13:57
Eccentricity: 0.0346713
inclination: 31.4323°
perigee height: 542 km
apogee height: 1039 km
right ascension of ascending node: 102.1749°
argument of perigee: 14.0570°
revolutions per day: 14.30322717
mean anomaly at epoch: 346.9429°
orbit number at epoch: 958

The dashed part of the orbit path shows where the satellite is in the earth's shadow,  

DLR